This demonstration page uses our WeatherBlox Daily Observations layout. Learn more.

Left ArrowRight Arrow

38.88101, -77.10428

Hourly Observations for May 18, 2020

Temp ( °F °C ) Dew Point ( °F °C ) Humidity (%) Winds ( mph kmh ) Pressure ( in mb ) Visibility ( mi km ) Precip ( " mm )
12:03 am 00:03 Cloudy 62 16.7 51 10.6 67 67 ENE 8 13 30.11 1020 10 16.0934 0 0
12:52 am 00:52 Cloudy 61 16.1 52 11.1 72 72 E 8 13 30.11 1020 10 16.0934 0 0
1:01 am 01:01 Cloudy 61 16.1 52 11.1 72 72 ENE 6 9 30.11 1020 10 16.0934 0 0
1:52 am 01:52 Cloudy 60 15.6 53 11.7 78 78 ENE 12 19 30.09 1019 10 16.0934 0 0
2:23 am 02:23 Cloudy 60 15.6 52 11.1 75 75 NE 10 17 30.09 1019 10 16.0934 0 0
2:42 am 02:42 Cloudy 60 15.6 53 11.7 78 78 ENE 12 19 30.08 1019 10 16.0934 0 0
2:52 am 02:52 Cloudy 59 15 53 11.7 81 81 ENE 12 19 30.09 1019 10 16.0934 0 0
3:04 am 03:04 Cloudy 59 15 54 12.2 83 83 ENE 10 17 30.08 1019 10 16.0934 0 0
3:52 am 03:52 Cloudy 58 14.4 54 12.2 87 87 ENE 12 19 30.06 1018 10 16.0934 0 0
4:52 am 04:52 Cloudy 58 14.4 55 12.8 90 90 NE 14 22 30.06 1018 8 12.87472 0 0
5:22 am 05:22 Cloudy with Drizzle 58 14.4 56 13.3 93 93 NE 10 17 30.06 1018 3 4.82802 0.001 0.001
5:52 am 05:52 Cloudy with Drizzle 57 13.9 56 13.3 96 96 NNE 9 15 30.06 1018 3 4.82802 0.001 0.001
6:52 am 06:52 Cloudy with Drizzle 57 13.9 55 12.8 93 93 NE 14 22 30.06 1018 3 4.82802 0.001 0.001
7:52 am 07:52 Cloudy 57 13.9 54 12.2 90 90 NE 16 26 30.06 1018 7 11.26538 0.001 0.001
8:12 am 08:12 Cloudy 57 13.9 55 12.8 93 93 NE 13 20 30.07 1018 7 11.26538 0 0
8:52 am 08:52 Cloudy 58 14.4 55 12.8 90 90 NE 14 22 30.06 1018 7 11.26538 0 0
9:18 am 09:18 Cloudy 59 15 55 12.8 87 87 ENE 12 19 30.07 1018 10 16.0934 0 0
9:52 am 09:52 Cloudy 59 15 55 12.8 87 87 ENE 14 22 30.06 1018 10 16.0934 0 0
10:52 am 10:52 Cloudy 60 15.6 56 13.3 86 86 ENE 12 19 30.06 1018 10 16.0934 0 0
11:52 am 11:52 Cloudy 61 16.1 57 13.9 87 87 NE 14 22 30.05 1018 10 16.0934 0 0
12:52 pm 12:52 Cloudy 62 16.7 57 13.9 84 84 NE 9 15 30.03 1017 10 16.0934 0 0
1:52 pm 13:52 Cloudy 63 17.2 57 13.9 81 81 NE 14 22 30.02 1017 10 16.0934 0 0
2:20 pm 14:20 Cloudy 64 17.8 58 14.4 81 81 NE 15 24 30.02 1017 10 16.0934 0 0
2:52 pm 14:52 Cloudy 64 17.8 57 13.9 78 78 ENE 16 26 30.01 1016 10 16.0934 0 0
3:52 pm 15:52 Cloudy 66 18.9 58 14.4 75 75 NE 15 24 30 1016 10 16.0934 0 0
4:52 pm 16:52 Cloudy with Light Rain 68 20 58 14.4 70 70 NE 13 20 29.97 1015 10 16.0934 0.001 0.001
4:55 pm 16:55 Cloudy with Light Rain 68 20 58 14.4 70 70 ENE 16 26 29.98 1015 10 16.0934 0.001 0.001
5:49 pm 17:49 Cloudy with Light Rain 68 20 57 14 69 69 ENE 17 28 29.97 1015 10 16.0934 0.001 0.001
5:52 pm 17:52 Cloudy with Light Rain 68 20 57 13.9 68 68 ENE 16 26 29.97 1015 10 16.0934 0.001 0.001
6:52 pm 18:52 Cloudy 68 20 56 13.3 65 65 ENE 17 28 29.97 1015 10 16.0934 0.001 0.001
7:52 pm 19:52 Cloudy 67 19.4 54 12.2 63 63 ENE 14 22 29.98 1015 10 16.0934 0 0
8:52 pm 20:52 Cloudy 67 19.4 51 10.6 57 57 ENE 17 28 30.01 1016 10 16.0934 0 0
9:52 pm 21:52 Cloudy 66 18.9 48 8.9 52 52 ENE 17 28 30.04 1017 10 16.0934 0 0
10:52 pm 22:52 Cloudy 65 18.3 46 7.8 51 51 ENE 18 30 30.04 1017 10 16.0934 0 0
11:52 pm 23:52 Cloudy 63 17.2 46 7.8 54 54 ENE 9 15 30.04 1017 10 16.0934 0 0

Powered by AerisWeather